Content
SEND FEEDBACK

Daily
Averages
Monthly
Summary
United States of America

GANN VALLEY, SOUTH DAKOTA


Home > North America > United States > South Dakota
Elevation: 1710 feet     Latitude: 44 03N     Longitude: 099 02W

WEATHER
 
SELECT A DAY
Number of Records: 185,306;   Date Range: 1/1/95 - 10/21/14
 
SHARE

PRINT THIS DATA

[ ← Previous Day ]
WEATHER ALMANAC - JANUARY 31, 2013
[ Next Day → ]
[ °C ]   °F
Weather ElementAverageHighLow
Temperature-2.6 °F1 °F (2:52 am)-6 °F (8:52 pm)
Dewpoint-11.9 °F-8 °F (3:52 am)-16.1 °F (10:52 am)
Humidity64.6 %72 % (10:52 pm)59 % (10:52 am)
Barometer30.36 in30.46 in (11:52 am)30.09 in (1:52 am)
Wind Speed15 mph28.8 mph (11:52 am)
Wind Gust35.7 mph (10:52 am)
Weather ElementAverage
Wind DirectionWNW (280.4 °)

Weather ElementTotal
Precipitation---
Heating Degree Days67.5 (Base 65)
Averaged from 23 records on January 31, 2013
WEATHER CONDITIONS BREAKOUT
WIND DIRECTION BREAKOUT
WEATHER BY HOUR - JANUARY 31, 2013
[ °C ]   °F
Local TimeTemperatureDewpointHumidityBarometerVisibilityWind DirectionWind SpeedGust SpeedPrecipitationEventsConditions
1:52 AM0.0 °F-11.0 °F60 %30.09 inNNW (330°)15.0 mph
2:52 AM1.0 °F-9.0 °F63 %30.12 inNNW (340°)17.3 mph24.2 mph
3:52 AM0.0 °F-8.0 °F69 %30.13 inNNW (330°)13.8 mph
4:52 AM1.0 °F-8.0 °F66 %30.16 inNNW (330°)17.3 mph23.0 mph
5:52 AM-0.9 °F-9.0 °F69 %30.20 inNNW (340°)18.4 mph25.3 mph
6:52 AM-2.0 °F-9.9 °F69 %30.26 inNNW (340°)19.6 mph29.9 mph
7:52 AM-4.0 °F-11.9 °F69 %30.30 inNNW (330°)19.6 mph28.8 mph
8:52 AM-5.1 °F-14.1 °F65 %30.36 inNNW (340°)23.0 mph31.1 mph
9:52 AM-5.1 °F-15.0 °F62 %30.40 inNNW (330°)20.7 mph27.6 mph
10:52 AM-5.1 °F-16.1 °F59 %30.43 inNW (320°)23.0 mph35.7 mph
11:52 AM-5.1 °F-16.1 °F59 %30.46 inNW (320°)28.8 mph34.5 mph
12:52 PM-4.0 °F-15.0 °F59 %30.46 inNW (310°)23.0 mph32.2 mph
1:52 PM-2.0 °F-13.0 °F60 %30.44 inNW (320°)19.6 mph29.9 mph
2:52 PM-0.9 °F-11.9 °F60 %30.43 inWNW (300°)23.0 mph
3:52 PM0.0 °F-11.0 °F60 %30.44 inNW (320°)16.1 mph
4:52 PM-0.9 °F-11.0 °F62 %30.44 inNW (310°)13.8 mph
5:52 PM-2.0 °F-11.9 °F63 %30.45 inWNW (300°)12.7 mph
6:52 PM-2.9 °F-13.0 °F62 %30.45 inWest (280°)8.1 mph
7:52 PM-5.1 °F-13.0 °F69 %30.46 inWest (280°)4.6 mph
8:52 PM-6.0 °F-14.1 °F68 %30.45 inCalm
9:52 PM-5.1 °F-13.0 °F69 %30.45 inSSW (210°)3.5 mph
10:52 PM-2.9 °F-9.9 °F72 %30.43 inCalm
11:52 PM-2.0 °F-9.0 °F72 %30.40 inSouth (170°)4.6 mph
Hourly data recorded from K9V9, located miles away from Gann Valley, South Dakota







STORIES FROM OUR PARTNERS